Location: Gradaro
(45.0833°N, 10.8833°E)
Time: 18:39:04
(UTC+00:00)

FENGYUN 1C DEB - Visible Passes

Search period start: 22 June 2021 00:00
Search period end: 02 July 2021 00:00
Orbit: 832 x 880 km, 99.0° (Epoch: 21 June)

Date Brightness Start Highest point End Pass type
(mag) Time Alt. Az. Time Alt. Az. Time Alt. Az.
22 Jun ? 20:05:50 10° SW 20:09:59 21° W 20:14:08 10° NW visible
23 Jun ? 19:55:10 10° SSW 19:59:44 25° W 20:04:17 10° NW visible
24 Jun ? 19:44:35 10° SSW 19:49:29 31° W 19:54:21 10° NW visible
29 Jun ? 20:38:28 10° WSW 20:40:05 11° W 20:41:43 10° WNW visible
30 Jun ? 20:26:56 10° WSW 20:29:47 14° W 20:32:37 10° WNW visible
01 Jul ? 20:15:54 10° SW 20:19:28 17° W 20:23:03 10° NW visible
